User: anonymous   Login
Location: Gollag?dem
(16.8053°N, 80.8024°E)
Time: 12:15:50
(UTC+00:00)
Language:

Resurs 01 Rocket - Orbit

View from above orbital plane
View from above orbital plane
View from above satellite
View from above satellite

Ground track
Ground track

The orbit data is extracted from the following two-line orbital elements,

1 23343U 94074B   20293.16095730 +.00000023 +00000-0 +10608-4 0  9990
2 23343 097.9845 344.9719 0008201 109.1429 311.4719 14.76840556396889
Epoch (UTC): 19 October 2020 03:51:46
Eccentricity: 0.0008201
inclination: 97.9845°
perigee height: 633 km
apogee height: 645 km
right ascension of ascending node: 344.9719°
argument of perigee: 109.1429°
revolutions per day: 14.76840556
mean anomaly at epoch: 311.4719°
orbit number at epoch: 39688

The dashed part of the orbit path shows where the satellite is in the earth's shadow,  

DLR